Oakland, CA

4:24 AM PDT on April 24, 2018 (GMT -0700)
Metro Oakland International

Weather History for KOAK - February, 2014

Change the Weather History Date:

Saturday, February 15, 2014

  Actual Average Record
Temperature  
Mean Temperature 55 °F 52 °F  
Max Temperature 60 °F 60 °F 74 °F (2016)
Min Temperature 49 °F 44 °F 34 °F (1956)
Degree Days  
Heating Degree Days 10 13  
Month to date heating degree days 189 203  
Since 1 July heating degree days 1703 1862  
Cooling Degree Days 0 0  
Month to date cooling degree days 0 0  
Year to date cooling degree days 0 0  
Growing Degree Days 5 (Base 50)    
Moisture  
Dew Point 50 °F    
Average Humidity 83    
Maximum Humidity 93    
Minimum Humidity 72    
Precipitation  
Precipitation T in 0.14 in 1.87 in (2009)
Month to date precipitation 2.24 1.90  
Year to date precipitation 2.28 5.89  
Since 1 July precipitation 4.35  
Sea Level Pressure  
Sea Level Pressure 30.03 in    
Wind  
Wind Speed 6 mph (SSW)    
Max Wind Speed 16 mph    
Max Gust Speed 31 mph    
Visibility 10 miles    
Events      
T = Trace of Precipitation, MM = Missing Value Source: NWS Daily Summary

Daily Weather History Graph

Daily Weather History Graph

Search for Another Location

Airport or City:

Astronomy

Feb. 15, 2014 Rise Set
Actual Time 6:58 AM PST 5:48 PM PST
Civil Twilight 6:31 AM PST 6:15 PM PST
Nautical Twilight 6:00 AM PST 6:45 PM PST
Astronomical Twilight 5:30 AM PST 7:16 PM PST
Moon 6:51 PM PST (2/15) 7:01 AM PST (2/15)
Length of Visible Light 11h 43m
Length of Day
10h 49m
Full, 99% of the Moon is Illuminated
Feb 15
Full
Feb 22
Last Quarter
Mar 1
New
Mar 8
First Quarter
Mar 16
Full

Hourly Weather History & Observations

Time (PST) Temp. Dew Point Humidity Pressure Visibility Wind Dir Wind Speed Gust Speed Precip Events Conditions
12:39 AM 51.8 °F 48.2 °F 88% 30.06 in 10.0 mi ESE 3.5 mph - N/A   Mostly Cloudy
12:53 AM 51.1 °F 48.9 °F 92% 30.05 in 10.0 mi East 3.5 mph - N/A   Mostly Cloudy
1:53 AM 53.1 °F 48.9 °F 86% 30.02 in 10.0 mi ESE 3.5 mph - N/A   Mostly Cloudy
2:53 AM 52.0 °F 48.9 °F 89% 30.01 in 10.0 mi SE 5.8 mph - N/A   Mostly Cloudy
3:53 AM 50.0 °F 46.9 °F 89% 30.01 in 10.0 mi Calm Calm - N/A   Mostly Cloudy
4:53 AM 50.0 °F 48.0 °F 93% 30.02 in 10.0 mi Calm Calm - N/A   Mostly Cloudy
5:53 AM 51.1 °F 48.0 °F 89% 30.01 in 10.0 mi Calm Calm - N/A   Mostly Cloudy
6:53 AM 50.0 °F 46.9 °F 89% 30.03 in 10.0 mi Calm Calm - N/A   Mostly Cloudy
7:53 AM 50.0 °F 46.9 °F 89% 30.04 in 10.0 mi Calm Calm - N/A   Mostly Cloudy
8:53 AM 54.0 °F 50.0 °F 86% 30.06 in 10.0 mi Calm Calm - N/A   Overcast
9:53 AM 55.9 °F 52.0 °F 87% 30.05 in 10.0 mi SE 6.9 mph - N/A   Overcast
10:53 AM 57.0 °F 51.1 °F 81% 30.04 in 10.0 mi SE 6.9 mph - N/A   Overcast
11:53 AM 57.0 °F 51.1 °F 81% 30.03 in 10.0 mi SSW 4.6 mph - N/A   Overcast
12:53 PM 57.9 °F 51.1 °F 78% 30.02 in 10.0 mi NW 6.9 mph - N/A   Overcast
1:53 PM 60.1 °F 51.1 °F 72% 30.03 in 10.0 mi West 11.5 mph - N/A   Overcast
2:53 PM 59.0 °F 51.1 °F 75% 30.04 in 10.0 mi SW 9.2 mph - N/A   Overcast
3:53 PM 59.0 °F 51.1 °F 75% 30.02 in 10.0 mi SW 8.1 mph - N/A   Overcast
4:53 PM 59.0 °F 51.1 °F 75% 30.02 in 10.0 mi SW 9.2 mph - N/A   Overcast
5:53 PM 57.9 °F 51.1 °F 78% 30.02 in 10.0 mi SSW 11.5 mph - N/A   Overcast
6:53 PM 57.9 °F 51.1 °F 78% 30.01 in 10.0 mi SSW 13.8 mph - N/A   Mostly Cloudy
7:53 PM 57.9 °F 51.1 °F 78% 30.02 in 10.0 mi SSW 8.1 mph - N/A   Mostly Cloudy
8:53 PM 57.9 °F 51.1 °F 78% 30.03 in 10.0 mi SSW 9.2 mph - N/A   Overcast
9:53 PM 57.9 °F 52.0 °F 81% 30.04 in 10.0 mi SSW 12.7 mph - N/A   Overcast
10:53 PM 57.0 °F 53.1 °F 87% 30.05 in 10.0 mi SSW 10.4 mph - 0.00 in   Overcast
11:53 PM 57.9 °F 53.1 °F 84% 30.05 in 10.0 mi SSW 9.2 mph - N/A   Overcast